TimeCST,TemperatureF,Dew PointF,Humidity,Sea Level PressureIn,VisibilityMPH,Wind Direction,Wind SpeedMPH,Gust SpeedMPH,PrecipitationIn,Events,Conditions,WindDirDegrees,DateUTC
12:00 AM,72,63,65,29.85,12,East,5.8,,,,Partly Cloudy,90,2013-04-04 06:00:00
12:00 AM,71.6,62.6,73,30.04,-9999.0,East,5.8,-,N/A,,Clear,90,2013-04-04 06:00:00
1:00 AM,71.6,62.6,73,30.02,-9999.0,East,5.8,-,N/A,,Clear,100,2013-04-04 07:00:00
2:00 AM,69.8,62.6,78,30.00,-9999.0,East,5.8,-,N/A,,Clear,80,2013-04-04 08:00:00
3:00 AM,68,63,78,29.85,12,NE,1.2,,,,Scattered Clouds,50,2013-04-04 09:00:00
3:00 AM,68.0,62.6,83,29.99,-9999.0,NE,1.2,-,N/A,,Clear,50,2013-04-04 09:00:00
4:00 AM,68.0,62.6,83,29.99,-9999.0,ESE,1.2,-,N/A,,Clear,120,2013-04-04 10:00:00
5:00 AM,68.0,62.6,83,30.00,-9999.0,ENE,1.2,-,N/A,,Clear,70,2013-04-04 11:00:00
6:00 AM,68,63,78,29.86,12,ENE,3.5,,,,Scattered Clouds,60,2013-04-04 12:00:00
6:00 AM,68.0,62.6,83,30.01,-9999.0,ENE,3.5,-,N/A,,Clear,60,2013-04-04 12:00:00
7:00 AM,73.4,62.6,69,30.03,6.2,NNE,4.6,-,N/A,,Unknown,30,2013-04-04 13:00:00
8:00 AM,78.8,62.6,57,30.04,-9999.0,SE,6.9,-,N/A,,Clear,130,2013-04-04 14:00:00
8:38 AM,80.6,66.2,61,30.06,-9999.0,SW,3.5,-,N/A,,Clear,220,2013-04-04 14:38:00
9:00 AM,81,66,52,29.86,12,West,5.8,,,,Scattered Clouds,260,2013-04-04 15:00:00
9:00 AM,80.6,66.2,61,30.06,6.2,West,5.8,-,N/A,,Scattered Clouds,260,2013-04-04 15:00:00
10:00 AM,84.2,68.0,58,30.06,6.2,West,13.8,-,N/A,,Scattered Clouds,270,2013-04-04 16:00:00
11:00 AM,84.2,68.0,58,30.05,6.2,SW,12.7,-,N/A,,Scattered Clouds,230,2013-04-04 17:00:00
12:00 PM,84,68,50,29.81,12,WSW,9.2,,,,Partly Cloudy,240,2013-04-04 18:00:00
12:00 PM,84.2,68.0,58,30.02,6.2,WSW,9.2,-,N/A,,Mostly Cloudy,240,2013-04-04 18:00:00
1:00 PM,82.4,68.0,62,29.99,6.2,West,10.4,-,N/A,,Mostly Cloudy,270,2013-04-04 19:00:00
1:23 PM,78.8,68.0,69,30.01,6.2,NW,5.8,-,N/A,Rain,Rain,310,2013-04-04 19:23:00
1:33 PM,77.0,71.6,83,30.00,1.9,Calm,Calm,-,N/A,Rain-Thunderstorm,Light Thunderstorms and Rain,0,2013-04-04 19:33:00
2:00 PM,71.6,69.8,94,29.98,2.5,WNW,11.5,-,N/A,Rain,Light Rain,300,2013-04-04 20:00:00
3:00 PM,71,69,91,29.85,9,SE,3.5,,,Rain,Light Rain,130,2013-04-04 21:00:00
3:00 PM,71.6,69.8,94,29.98,6.2,SE,3.5,-,N/A,Rain,Light Rain,130,2013-04-04 21:00:00
4:00 PM,69.8,68.0,94,29.97,6.2,East,3.5,-,N/A,,Mostly Cloudy,90,2013-04-04 22:00:00
5:00 PM,73.4,68.0,83,29.99,6.2,WNW,3.5,-,N/A,,Mostly Cloudy,300,2013-04-04 23:00:00
6:00 PM,72,68,83,29.85,9,Calm,Calm,,,,Scattered Clouds,,2013-04-05 00:00:00
6:00 PM,73.4,68.0,83,29.98,6.2,Calm,Calm,-,N/A,,Mostly Cloudy,0,2013-04-05 00:00:00
7:00 PM,71.6,68.0,88,30.02,6.2,SE,2.3,-,N/A,,Mostly Cloudy,130,2013-04-05 01:00:00
8:00 PM,73.4,66.2,78,30.03,6.2,ENE,2.3,-,N/A,,Scattered Clouds,60,2013-04-05 02:00:00
9:00 PM,71,67,85,29.86,5,SSE,2.3,,,Fog,Shallow Fog,150,2013-04-05 03:00:00
9:00 PM,71.6,68.0,88,30.05,5.0,SSE,2.3,-,N/A,Fog,Fog,150,2013-04-05 03:00:00
10:00 PM,69.8,66.2,88,30.05,5.0,Calm,Calm,-,N/A,Fog,Fog,0,2013-04-05 04:00:00
11:00 PM,71.6,64.4,78,30.04,-9999.0,NE,5.8,-,N/A,,Clear,50,2013-04-05 05:00:00